Location: Newark
(51.0500°N, 12.4500°E)
Time: 08:13:34
(UTC+00:00)

Tiros 1 - Pass Details

Date: 21 February 2020
Orbit: 630 x 664 km, 48.4° (Epoch: 05 April)

Event Time Altitude Azimuth Distance (km) Brightness Sun altitude
Rises 02:15:11 0° 227° (SW) 2,920 - -36.8°
Reaches altitude 10° 02:17:39 10° 218° (SW) 2,010 - -36.4°
Maximum altitude 02:21:48 33° 154° (SSE) 1,051 - -35.9°
Exits shadow 02:25:02 15° 96° (E) 1,701 9.8 -35.5°
Drops below altitude 10° 02:25:57 10° 90° (E) 2,009 10.3 -35.3°
Sets 02:28:26 0° 81° (E) 2,919 11.4 -35.0°
